This is the latest recevied weather packets stored in our database for station/object AD5L. If no packets are shown the sender has not sent any weather packets the latest 10 day(s).
| Time | Temp. | Humidity | Pressure | Rain* | Wind** | Luminosity | Snow |
|---|---|---|---|---|---|---|---|
| 1777826009 | 25° C | 43% | 1023.2 hPa | 0 mm | - | - | - |
| 1777825422 | 25° C | 44% | 1023.3 hPa | 0 mm | - | - | - |
| 1777824813 | 24.44° C | 46% | 1023.4 hPa | 0 mm | - | - | - |
| 1777824205 | 24.44° C | 47% | 1023.4 hPa | 0 mm | - | - | - |
| 1777823612 | 24.44° C | 47% | 1023.5 hPa | 0 mm | - | - | - |
| 1777823024 | 23.89° C | 47% | 1023.3 hPa | 0 mm | - | - | - |
| 1777822415 | 23.89° C | 49% | 1023.3 hPa | 0 mm | - | - | - |
| 1777821826 | 23.33° C | 50% | 1023.5 hPa | 0 mm | - | - | - |
| 1777821210 | 22.78° C | 54% | 1023.4 hPa | 0 mm | - | - | - |
| 1777820630 | 22.22° C | 59% | 1023.4 hPa | 0 mm | - | - | - |
| 1777820011 | 21.67° C | 62% | 1023.4 hPa | 0 mm | - | - | - |
| 1777819403 | 21.11° C | 63% | 1023.3 hPa | 0 mm | - | - | - |
| 1777818814 | 20.56° C | 65% | 1023.3 hPa | 0 mm | - | - | - |
| 1777818201 | 20° C | 65% | 1023.1 hPa | 0 mm | - | - | - |
| 1777817612 | 19.44° C | 66% | 1023.2 hPa | 0 mm | - | - | - |
| 1777817003 | 18.89° C | 68% | 1023.2 hPa | 0 mm | - | - | - |
| 1777816414 | 18.33° C | 70% | 1023.2 hPa | 0 mm | - | - | - |
| 1777815806 | 17.78° C | 73% | 1023.2 hPa | 0 mm | - | - | - |
| 1777815219 | 17.22° C | 75% | 1022.9 hPa | 0 mm | - | - | - |
| 1777814610 | 16.67° C | 79% | 1022.9 hPa | 0 mm | - | - | - |
| 1777814021 | 15.56° C | 86% | 1023 hPa | 0 mm | - | - | - |
| 1777813410 | 15° C | 86% | 1023 hPa | 0 mm | - | - | - |
| 1777812822 | 13.33° C | 88% | 1022.8 hPa | 0 mm | - | - | - |
| 1777812211 | 12.78° C | 89% | 1022.7 hPa | 0 mm | - | - | - |
| 1777811622 | 12.22° C | 91% | 1022.8 hPa | 0 mm | - | - | - |
* Rain latest hour (hover to see other rain measurements)
** Current wind speed in m/s (hover to see current wind gust speed)